User: anonymous   Login
Location: Ahausen
(50.4985°N, 8.2722°E)
Time: 16:58:46
(UTC+00:00)
Language:

Tiangong - Orbit

View from above orbital plane
View from above orbital plane
View from above satellite
View from above satellite

Ground track
Ground track

The orbit data is extracted from the following two-line orbital elements,

1 48274U 21035A   24103.11459964  .00018428  00000-0  18395-3 0  9997
2 48274  41.4671 126.7875 0008052  14.7505 345.3569 15.65155943168759
Epoch (UTC): 12 April 2024 02:45:01
Eccentricity: 0.0008052
inclination: 41.4671°
perigee height: 367 km
apogee height: 378 km
right ascension of ascending node: 126.7875°
argument of perigee: 14.7505°
revolutions per day: 15.65155943
mean anomaly at epoch: 345.3569°
orbit number at epoch: 16875

The dashed part of the orbit path shows where the satellite is in the earth's shadow,  

DLR